Location: Multiple Mirror Telescope
(31.6889°N, 110.8853°W)
Time: 05:56:29
(UTC-07:00)

ISS - Pass Details

Date: 17 April 2026
Orbit: 414 x 424 km, 51.6° (Epoch: 18 May)

Event Time Altitude Azimuth Distance (km) Brightness Sun altitude
Exits shadow 04:54:39 22° 246° (WSW) 955 -2.6 -12.6°
Maximum altitude 04:56:33 55° 317° (NW) 507 -3.5 -12.2°
Drops below altitude 10° 04:59:52 10° 36° (NE) 1,502 0.0 -11.6°
Sets 05:02:00 0° 41° (NE) 2,371 1.2 -11.2°
